Карточка аэропорта URMM

Внимание!
Информация на этой странице в стадии наполнения.
Если вы не увидели какой-то информации, или заметили неточность - пожалуйста сообщите нам!
Спасибо!
Команда RU-STAFF
Название аэропортаМинеральные Воды
Название аэропорта (англ.)Mineralnyye Vody
Превышение1047 ft. (319.1 m.)
Координаты44°13.608', 43°4.9799999999999'
Высота перехода7000 ft
Эшелон переходаFL80 (QNH >= 1013); FL90 (QNH 977-1012); FL100 (QNH < 977)
Коды ответчика1050-1057
Зона ОрВДРостов-на-Дону РПИ (URRV)
Данные METARURMM 240830Z 31007MPS 9999 BKN041 28/16 Q1005 R29/090070 NOSIG RMK QFE726/0968
Проноз погоды (TAF)URMM 240800Z 2409/2509 29006G13MPS 9999 BKN055 TX30/2412Z TN17/2503Z TEMPO 2412/2418 VRB08G17MPS 6000 -TSRA BKN016 BKN020CB BECMG 2418/2420 28003G08MPS
NOTAMshow/hide NOTAM
AWOS   TABLE

Информация о ВПП

ВПП Длина ВПП (м.) Покрытие Курс ВПП Частота ILS
123900Бетон115111.7
303900Бетон295109.3

Диспетчерские позиции

Позывной Наименование органа УВД Частота
URMM_R_APPМинводы-Круг120.7
URMM_APPМинводы-Подход119.3
URMM_GNDМинводы-Руление121.9
URMM_TWRМинводы-Старт128.0



Спутниковое изображение